Home > Weather > Portland > Past weeks

Flag for U.S.A. Weather for the Past 2 Weeks in Portland, Oregon, U.S.A.

Now
50 °F

Mostly cloudy.


Feels Like: 47 °F
Forecast: 45 / 57 °F
Wind: 7 mph from Southeast

Location: Portland International Airport

Current Time: Feb 12, 2016 at 2:08:58 AM

Latest Report: Feb 12, 2016 at 12:53 AM


Visibility: 10 mi

Pressure: 30.15 "Hg

Humidity: 80%

Dew point: 44 °F

Location of PortlandLocation

Historic Weather in Portland — Graph

°F

Portland Temperature Yesterday

Maximum temperature yesterday: 58 °F (at 10:53 AM)
Minimum temperature yesterday: 48 °F (at 3:53 AM)
Average temperature yesterday: 51 °F

High & Low Weather Summary for the Past Weeks

 TemperatureHumidityPressure
High62 °F (Feb 8, 2:53 PM)97% (Jan 29, 6:53 AM)30.54 "Hg (Jan 29, 6:53 AM)
Low34 °F (Feb 2, 5:53 AM)44% (Feb 8, 2:53 PM)29.62 "Hg (Jan 29, 7:53 AM)
Average47 °F78%30.20 "Hg
* Reported Jan 28 12:53 AM — Feb 12 12:53 AM, Portland, Weather by CustomWeather, © 2016

Note: Actual official high and low records may vary slightly from our data, if they occured in-between our weather recording intervals... More about our weather records

Advertising

Portland Weather History for the Previous 24 Hours

 ConditionsComfort  
Time TempWeatherWind HumidityBarometerVisibility
12:53 AM
Fri, Feb 12
50 °FMostly cloudy.7 mph80%30.15 "Hg10 mi
11:53 PM
Thu, Feb 11
52 °FMostly cloudy.14 mph75%30.13 "Hg10 mi
10:53 PM51 °FMostly cloudy.13 mph77%30.12 "Hg10 mi
9:53 PM50 °FMostly cloudy.12 mph80%30.11 "Hg10 mi
8:53 PM50 °FPassing clouds.7 mph80%30.12 "Hg10 mi
7:53 PM50 °FOvercast.7 mph83%30.12 "Hg10 mi
6:53 PM50 °FMostly cloudy.5 mph86%30.14 "Hg10 mi
5:53 PM50 °FMostly cloudy.7 mph86%30.13 "Hg10 mi
4:53 PM51 °FLight rain. Mostly cloudy.8 mph86%30.12 "Hg10 mi
3:53 PM51 °FLight rain. More clouds than sun.16 mph86%30.13 "Hg8 mi
2:53 PM54 °FMore clouds than sun.10 mph74%30.13 "Hg10 mi
12:53 PM57 °FMostly cloudy.12 mph72%30.14 "Hg10 mi
11:53 AM55 °FLight rain. Overcast.17 mph74%30.15 "Hg10 mi
10:53 AM58 °FMostly cloudy.10 mph67%30.18 "Hg10 mi
9:53 AM55 °FOvercast.8 mph72%30.16 "Hg10 mi
8:53 AM49 °FLight rain. Fog.No wind90%30.16 "Hg6 mi
7:53 AM49 °FOvercast.3 mph93%30.17 "Hg9 mi
6:53 AM49 °FOvercast.No wind90%30.16 "Hg8 mi
5:53 AM49 °FOvercast.No wind90%30.16 "Hg10 mi
4:53 AM48 °FOvercast.No wind89%30.16 "Hg10 mi
3:53 AM48 °FOvercast.No wind89%30.16 "Hg10 mi
2:53 AM49 °FOvercast.No wind86%30.18 "Hg10 mi
Weather by CustomWeather, © 2016

See weather overviewHow to use our weather pages